OPTUS 10

Last updated on Fri Jul 11 2025 00:02:44 GMT+0000 (Coordinated Universal Time)

1 40146U 14054A 25191.54251858 -.00000135 00000+0 00000+0 0 9993 2 40146 0.0270 275.7761 0002047 208.1607 156.0807 1.00271371 39605
UTC large
Height (km)
Speed (km/s)
/
Latitude / Longitude
Inclination (degrees)
Orbital Period (minutes)
Azimuth
Elevation
Range (km)
Doppler Factor

Next 0 passes for location: London (51.5072 / 0.1276)

Sorry there are no passes over London.